Find Zhongxing 3B

NORAD ID: 64062 Int'l Des: 2025-106 Owner: ZLZB Country: CN operational
HEOCIRCULARGSOGEO

Live Position

Loading 3D Globe...

About Zhongxing 3B

Description loading...

Upcoming Passes

Passes for default location (London). Set your location on the main map for personalized predictions.

Altitude History

Loading altitude history...

Two-Line Element Set

1 64062U 25106A 26106.36711404 -.00000038 00000-0 00000+0 0 9994
2 64062 0.0451 30.5629 0001349 4.5732 108.8546 1.00271970 3443
Epoch: Apr 16, 2026 • Age: 33 hours

Current Status

Altitude 35788.6 km
Velocity 3.07 km/s
Sub-Earth Point -0.00°S, 167.29°E
Launch Date May 20, 2025
Age 0.9 years
Type other

Technical Details

Classification Payload
Mass 5000.00 kg
Dry Mass 2500.00 kg
Total Mass 5000.00 kg
Length 5.00 m
Diameter 2.50 m
Span 30.00 m
Shape Box + 2 Pan
Manufacturer SISE
Bus Type FY-4
Phase Status In Orbit
Owner/State ZLZB/CN

Most Searched